| time (UTC) | temp F | wind direction | speed knots | gust knots | rain 1hr in | rain 24hr in | rain mn in | humidity % | barometer mb |
| 20260504050404 | 40 | 248 | 0.0 | 0.0 | 0.00 | 0.00 | 0.00 | 85 | 987.5 |
| 20260504045905 | 40 | 248 | 0.0 | 0.0 | 0.00 | 0.00 | 0.00 | 85 | 987.5 |
| 20260504045404 | 40 | 248 | 0.0 | 0.0 | 0.00 | 0.00 | 0.00 | 85 | 987.5 |
| 20260504044905 | 40 | 248 | 0.0 | 0.0 | 0.00 | 0.00 | 0.00 | 85 | 987.5 |
| 20260504044405 | 40 | 248 | 0.0 | 0.0 | 0.00 | 0.00 | 0.00 | 85 | 987.5 |
| 20260504043904 | 40 | 248 | 0.0 | 0.0 | 0.00 | 0.00 | 0.00 | 85 | 987.4 |
| 20260504042405 | 40 | 248 | 0.0 | 0.0 | 0.00 | 0.00 | 0.00 | 85 | 987.3 |
| 20260504041904 | 40 | 248 | 0.0 | 0.0 | 0.00 | 0.00 | 0.00 | 85 | 987.3 |
| 20260504041405 | 40 | 256 | 0.0 | 0.0 | 0.00 | 0.00 | 0.00 | 84 | 987.3 |
| 20260504040905 | 40 | 253 | 0.0 | 0.0 | 0.00 | 0.00 | 0.00 | 84 | 987.3 |
| 20260504040405 | 40 | 225 | 0.0 | 0.0 | 0.00 | 0.00 | 0.00 | 83 | 987.3 |
| 20260504035904 | 40 | 189 | 0.0 | 0.0 | 0.00 | 0.00 | 0.00 | 83 | 987.3 |
| 20260504035404 | 40 | 265 | 0.0 | 0.0 | 0.00 | 0.00 | 0.00 | 84 | 987.3 |
| 20260504034404 | 41 | 274 | 0.9 | 0.9 | 0.00 | 0.00 | 0.00 | 84 | 987.3 |
| 20260504033904 | 41 | 225 | 0.9 | 0.9 | 0.00 | 0.00 | 0.00 | 82 | 987.3 |
| 20260504033404 | 41 | 221 | 0.0 | 0.0 | 0.00 | 0.00 | 0.00 | 81 | 987.3 |
| 20260504032904 | 41 | 263 | 0.0 | 0.9 | 0.00 | 0.00 | 0.00 | 80 | 987.3 |
| 20260504032404 | 42 | 202 | 0.0 | 0.0 | 0.00 | 0.00 | 0.00 | 80 | 987.4 |
| 20260504031905 | 42 | 192 | 0.9 | 0.9 | 0.00 | 0.00 | 0.00 | 81 | 987.4 |
| 20260504031405 | 42 | 270 | 0.0 | 0.0 | 0.00 | 0.00 | 0.00 | 80 | 987.4 |
| 20260504030905 | 42 | 158 | 0.0 | 1.7 | 0.00 | 0.00 | 0.00 | 79 | 987.4 |
| 20260504030405 | 42 | 258 | 0.0 | 1.7 | 0.00 | 0.00 | 0.00 | 79 | 987.5 |
| 20260504025905 | 42 | 282 | 0.9 | 1.7 | 0.00 | 0.00 | 0.00 | 78 | 987.5 |
| 20260504025405 | 42 | 270 | 0.9 | 0.9 | 0.00 | 0.00 | 0.00 | 77 | 987.5 |
| 20260504024905 | 42 | 270 | 0.9 | 0.9 | 0.00 | 0.00 | 0.00 | 77 | 987.5 |
| 20260504024404 | 43 | 270 | 0.0 | 0.0 | 0.00 | 0.00 | 0.00 | 76 | 987.5 |
| 20260504023405 | 43 | 257 | 0.0 | 0.0 | 0.00 | 0.00 | 0.00 | 76 | 987.5 |
| 20260504022404 | 44 | 213 | 0.0 | 0.0 | 0.00 | 0.00 | 0.00 | 75 | 987.6 |
| 20260504021904 | 44 | 255 | 0.0 | 0.9 | 0.00 | 0.00 | 0.00 | 75 | 987.6 |
| 20260504020904 | 44 | 270 | 0.0 | 0.0 | 0.00 | 0.00 | 0.00 | 72 | 987.7 |
| 20260504020405 | 44 | 255 | 0.0 | 0.0 | 0.00 | 0.00 | 0.00 | 70 | 987.6 |
| 20260504015904 | 44 | 246 | 0.0 | 0.0 | 0.00 | 0.00 | 0.00 | 70 | 987.6 |
| 20260504015405 | 45 | 213 | 0.0 | 0.0 | 0.00 | 0.00 | 0.00 | 70 | 987.6 |
| 20260504014904 | 45 | 217 | 0.0 | 0.0 | 0.00 | 0.00 | 0.00 | 69 | 987.5 |
| 20260504014404 | 46 | 180 | 0.0 | 0.0 | 0.00 | 0.00 | 0.00 | 68 | 987.5 |
| 20260504013904 | 46 | 191 | 0.0 | 0.0 | 0.00 | 0.00 | 0.00 | 67 | 987.4 |
| 20260504013405 | 46 | 225 | 0.0 | 0.0 | 0.00 | 0.00 | 0.00 | 68 | 987.4 |
| 20260504012904 | 46 | 202 | 0.0 | 1.7 | 0.00 | 0.00 | 0.00 | 67 | 987.4 |
| 20260504012404 | 47 | 260 | 0.0 | 0.9 | 0.00 | 0.00 | 0.00 | 66 | 987.3 |
| 20260504011904 | 48 | 225 | 0.0 | 0.0 | 0.00 | 0.00 | 0.00 | 65 | 987.3 |
| 20260504011404 | 48 | 177 | 0.0 | 0.0 | 0.00 | 0.00 | 0.00 | 65 | 987.4 |
| 20260504010904 | 48 | 204 | 0.0 | 0.9 | 0.00 | 0.00 | 0.00 | 64 | 987.4 |
| 20260504005404 | 49 | 307 | 1.7 | 1.7 | 0.00 | 0.00 | 0.00 | 63 | 987.4 |
| 20260504004904 | 50 | 228 | 0.0 | 0.0 | 0.00 | 0.00 | 0.00 | 60 | 987.2 |
| 20260504004404 | 50 | 198 | 0.0 | 1.7 | 0.00 | 0.00 | 0.00 | 60 | 987.2 |
| 20260504003904 | 51 | 312 | 0.9 | 1.7 | 0.00 | 0.00 | 0.00 | 57 | 987.1 |
| 20260504002904 | 52 | 180 | 0.0 | 0.9 | 0.00 | 0.00 | 0.00 | 55 | 987.1 |
| 20260504002403 | 53 | 270 | 0.9 | 0.9 | 0.00 | 0.00 | 0.00 | 51 | 987.2 |
| 20260504001904 | 53 | 196 | 0.9 | 1.7 | 0.00 | 0.00 | 0.00 | 52 | 987.2 |
| 20260504001404 | 53 | 315 | 1.7 | 1.7 | 0.00 | 0.00 | 0.00 | 47 | 987.2 |
| 20260504000904 | 54 | 19 | 1.7 | 1.7 | 0.00 | 0.00 | 0.00 | 48 | 987.2 |
| 20260504000404 | 54 | 308 | 1.7 | 1.7 | 0.00 | 0.00 | 0.00 | 49 | 987.2 |
| 20260503235904 | 55 | 289 | 0.9 | 1.7 | 0.00 | 0.00 | 0.00 | 48 | 987.2 |
| 20260503235404 | 55 | 129 | 1.7 | 2.6 | 0.00 | 0.00 | 0.00 | 45 | 987.2 |
| 20260503234907 | 56 | 301 | 1.7 | 2.6 | 0.00 | 0.00 | 0.00 | 44 | 987.2 |
| 20260503233908 | 57 | 202 | 1.7 | 2.6 | 0.00 | 0.00 | 0.00 | 41 | 987.3 |
| 20260503233408 | 57 | 224 | 2.6 | 4.3 | 0.00 | 0.00 | 0.00 | 41 | 987.3 |
| 20260503232907 | 58 | 226 | 2.6 | 4.3 | 0.00 | 0.00 | 0.00 | 40 | 987.3 |
| 20260503232407 | 58 | 202 | 1.7 | 5.2 | 0.00 | 0.00 | 0.00 | 40 | 987.3 |
| 20260503231907 | 58 | 246 | 0.9 | 4.3 | 0.00 | 0.00 | 0.00 | 41 | 987.3 |
| 20260503231408 | 58 | 112 | 2.6 | 7.0 | 0.00 | 0.00 | 0.00 | 39 | 987.4 |
| 20260503230908 | 59 | 221 | 3.5 | 6.1 | 0.00 | 0.00 | 0.00 | 38 | 987.4 |
| 20260503230407 | 59 | 171 | 5.2 | 7.0 | 0.00 | 0.00 | 0.00 | 37 | 987.4 |
| 20260503225907 | 59 | 234 | 3.5 | 5.2 | 0.00 | 0.00 | 0.00 | 37 | 987.4 |
| 20260503225408 | 60 | 261 | 2.6 | 6.1 | 0.00 | 0.00 | 0.00 | 37 | 987.4 |
| 20260503224907 | 60 | 197 | 4.3 | 5.2 | 0.00 | 0.00 | 0.00 | 36 | 987.4 |
| 20260503224408 | 60 | 224 | 4.3 | 7.8 | 0.00 | 0.00 | 0.00 | 36 | 987.4 |
| 20260503223408 | 59 | 209 | 2.6 | 5.2 | 0.00 | 0.00 | 0.00 | 37 | 987.6 |
| 20260503222908 | 60 | 250 | 3.5 | 6.1 | 0.00 | 0.00 | 0.00 | 37 | 987.6 |
| 20260503222408 | 60 | 175 | 3.5 | 6.1 | 0.00 | 0.00 | 0.00 | 36 | 987.5 |
| 20260503221907 | 60 | 253 | 5.2 | 7.8 | 0.00 | 0.00 | 0.00 | 35 | 987.5 |
| 20260503221408 | 61 | 227 | 5.2 | 11.3 | 0.00 | 0.00 | 0.00 | 35 | 987.5 |
| 20260503220907 | 61 | 230 | 5.2 | 10.4 | 0.00 | 0.00 | 0.00 | 35 | 987.5 |
| 20260503220407 | 61 | 259 | 6.1 | 8.7 | 0.00 | 0.00 | 0.00 | 34 | 987.4 |
| 20260503215907 | 61 | 240 | 7.8 | 11.3 | 0.00 | 0.00 | 0.00 | 34 | 987.4 |
| 20260503214907 | 62 | 212 | 3.5 | 6.1 | 0.00 | 0.00 | 0.00 | 35 | 987.4 |
| 20260503213907 | 61 | 165 | 4.3 | 7.8 | 0.00 | 0.00 | 0.00 | 35 | 987.2 |
| 20260503212907 | 60 | 149 | 4.3 | 6.1 | 0.00 | 0.00 | 0.00 | 37 | 987.2 |
| 20260503212408 | 61 | 228 | 4.3 | 8.7 | 0.00 | 0.00 | 0.00 | 35 | 987.4 |
| 20260503211907 | 60 | 167 | 7.8 | 8.7 | 0.00 | 0.00 | 0.00 | 36 | 987.4 |
| 20260503211407 | 60 | 256 | 5.2 | 13.0 | 0.00 | 0.00 | 0.00 | 36 | 987.5 |
| 20260503210907 | 62 | 175 | 4.3 | 6.1 | 0.00 | 0.00 | 0.00 | 35 | 987.5 |
| 20260503205407 | 60 | 171 | 3.5 | 10.4 | 0.00 | 0.00 | 0.00 | 37 | 987.5 |
| 20260503204907 | 63 | 292 | 2.6 | 10.4 | 0.00 | 0.00 | 0.00 | 34 | 987.7 |
| 20260503204408 | 62 | 248 | 5.2 | 7.8 | 0.00 | 0.00 | 0.00 | 36 | 987.7 |
| 20260503203908 | 61 | 112 | 4.3 | 6.1 | 0.00 | 0.00 | 0.00 | 35 | 987.9 |
| 20260503203407 | 60 | 165 | 4.3 | 6.1 | 0.00 | 0.00 | 0.00 | 35 | 987.9 |
| 20260503201907 | 61 | 106 | 4.3 | 8.7 | 0.00 | 0.00 | 0.00 | 37 | 988.0 |
| 20260503201408 | 61 | 143 | 4.3 | 8.7 | 0.00 | 0.00 | 0.00 | 35 | 988.0 |
| 20260503200907 | 60 | 141 | 5.2 | 7.0 | 0.00 | 0.00 | 0.00 | 36 | 988.0 |
| 20260503195907 | 62 | 159 | 5.2 | 7.0 | 0.00 | 0.00 | 0.00 | 35 | 988.2 |
| 20260503195407 | 62 | 250 | 2.6 | 7.0 | 0.00 | 0.00 | 0.00 | 36 | 988.2 |
| 20260503194907 | 61 | 233 | 6.1 | 7.8 | 0.00 | 0.00 | 0.00 | 34 | 988.4 |
| 20260503194406 | 62 | 145 | 4.3 | 7.8 | 0.00 | 0.00 | 0.00 | 35 | 988.4 |
| 20260503193407 | 62 | 215 | 6.1 | 10.4 | 0.00 | 0.00 | 0.00 | 35 | 988.4 |
| 20260503192907 | 61 | 139 | 7.8 | 11.3 | 0.00 | 0.00 | 0.00 | 35 | 988.4 |
| 20260503192407 | 62 | 180 | 7.0 | 13.0 | 0.00 | 0.00 | 0.00 | 35 | 988.8 |
| 20260503191907 | 61 | 208 | 5.2 | 7.8 | 0.00 | 0.00 | 0.00 | 36 | 988.8 |
| 20260503191407 | 59 | 269 | 5.2 | 6.1 | 0.00 | 0.00 | 0.00 | 37 | 988.9 |
| 20260503190906 | 60 | 218 | 2.6 | 7.0 | 0.00 | 0.00 | 0.00 | 37 | 988.9 |
| 20260503185906 | 59 | 218 | 6.1 | 8.7 | 0.00 | 0.00 | 0.00 | 36 | 989.0 |
| 20260503184407 | 61 | 158 | 5.2 | 7.8 | 0.00 | 0.00 | 0.00 | 36 | 989.1 |
| 20260503183906 | 61 | 216 | 7.8 | 8.7 | 0.00 | 0.00 | 0.00 | 35 | 989.3 |
| 20260503183407 | 62 | 222 | 5.2 | 8.7 | 0.00 | 0.00 | 0.00 | 37 | 989.3 |
| 20260503182407 | 60 | 177 | 6.1 | 8.7 | 0.00 | 0.00 | 0.00 | 36 | 989.4 |
| 20260503181907 | 60 | 194 | 6.1 | 14.8 | 0.00 | 0.00 | 0.00 | 36 | 989.4 |
| 20260503181406 | 62 | 255 | 4.3 | 7.8 | 0.00 | 0.00 | 0.00 | 34 | 989.7 |
| 20260503180907 | 61 | 222 | 3.5 | 7.8 | 0.00 | 0.00 | 0.00 | 36 | 989.7 |
| 20260503180406 | 61 | 334 | 7.8 | 12.2 | 0.00 | 0.00 | 0.00 | 35 | 989.7 |
| 20260503175406 | 61 | 131 | 5.2 | 7.0 | 0.00 | 0.00 | 0.00 | 35 | 989.7 |
| 20260503174907 | 60 | 223 | 7.0 | 15.6 | 0.00 | 0.00 | 0.00 | 36 | 989.9 |
| 20260503174407 | 60 | 179 | 5.2 | 7.8 | 0.00 | 0.00 | 0.00 | 38 | 989.9 |
| 20260503173907 | 58 | 205 | 6.1 | 7.0 | 0.00 | 0.00 | 0.00 | 38 | 989.9 |
| 20260503173407 | 59 | 256 | 5.2 | 7.8 | 0.00 | 0.00 | 0.00 | 35 | 989.9 |
| 20260503172907 | 60 | 212 | 4.3 | 8.7 | 0.00 | 0.00 | 0.00 | 36 | 989.9 |
| 20260503172406 | 58 | 202 | 6.1 | 6.1 | 0.00 | 0.00 | 0.00 | 39 | 990.0 |
| 20260503171907 | 58 | 190 | 5.2 | 8.7 | 0.00 | 0.00 | 0.00 | 37 | 990.0 |
| 20260503171407 | 58 | 178 | 3.5 | 7.8 | 0.00 | 0.00 | 0.00 | 37 | 990.1 |
| 20260503170906 | 58 | 161 | 3.5 | 5.2 | 0.00 | 0.00 | 0.00 | 38 | 990.1 |
| 20260503170406 | 58 | 180 | 4.3 | 5.2 | 0.00 | 0.00 | 0.00 | 36 | 990.2 |
| 20260503150906 | 54 | 152 | 4.3 | 7.0 | 0.00 | 0.00 | 0.00 | 41 | 991.1 |
| 20260503150406 | 53 | 292 | 6.1 | 8.7 | 0.00 | 0.00 | 0.00 | 40 | 991.1 |
| 20260503131406 | 47 | 239 | 4.3 | 6.1 | 0.00 | 0.00 | 0.00 | 61 | 991.6 |
| 20260503130907 | 46 | 225 | 5.2 | 7.8 | 0.00 | 0.00 | 0.00 | 61 | 991.6 |
| 20260503090406 | 32 | 266 | 0.0 | 0.0 | 0.00 | 0.00 | 0.00 | 93 | 990.1 |
| 20260503081405 | 34 | 262 | 0.0 | 0.0 | 0.00 | 0.00 | 0.00 | 93 | 990.1 |
| 20260503080905 | 34 | 194 | 0.0 | 0.0 | 0.00 | 0.00 | 0.00 | 93 | 990.1 |
| 20260503080405 | 34 | 202 | 0.0 | 0.0 | 0.00 | 0.00 | 0.00 | 93 | 990.0 |
| 20260503072905 | 34 | 202 | 0.0 | 0.0 | 0.00 | 0.00 | 0.00 | 93 | 989.9 |
| 20260503072405 | 34 | 225 | 0.0 | 0.9 | 0.00 | 0.00 | 0.00 | 93 | 989.9 |
| 20260503071905 | 34 | 270 | 0.9 | 0.9 | 0.00 | 0.00 | 0.00 | 93 | 989.9 |
| 20260503071405 | 34 | 180 | 0.0 | 0.0 | 0.00 | 0.00 | 0.00 | 93 | 989.8 |
| 20260503070905 | 34 | 173 | 0.0 | 0.0 | 0.00 | 0.00 | 0.00 | 93 | 989.8 |
| 20260503070405 | 34 | 202 | 0.0 | 0.0 | 0.00 | 0.00 | 0.00 | 93 | 989.7 |
| 20260503054904 | 33 | 270 | 0.0 | 0.0 | 0.00 | 0.00 | 0.00 | 91 | 989.9 |
| 20260503054404 | 33 | 258 | 0.0 | 0.9 | 0.00 | 0.00 | 0.00 | 90 | 989.9 |
| 20260503053404 | 33 | 215 | 0.0 | 0.9 | 0.00 | 0.00 | 0.00 | 90 | 989.9 |